Date String (YYYY-MM-DD hh:mm:ss) UTC,Instrument flags,Ambient pressure (hPa),Sample flow (lpm),Bypass flow (lpm),Sample temperature (°C),Ambient temperature (°C),ASC tube jacket temperature (°C),LED temperature (°C),Box temperature (°C),Sample RH (%),Span deviation,Mass concentration (μg/m³),Mass concentration (μg/m³),Mass concentration (μg/m³)
DateTimeUTC,F1_M11,P_M11,Q1_M11,Q2_M11,T1_M11,T2_M11,T3_M11,T4_M11,T5_M11,U1_M11,ZSPAN_M11,X2_M11,X0_M11,X1_M11
2022-06-03 02:00:00,,0826.5,4.99,0.00,29.4,28.7,00.0,38.1,31.4,22.9,-000.6,0008.95,0014.79,0008.40
2022-06-03 02:01:00,,0826.5,5.01,0.00,29.4,28.8,00.0,38.2,31.4,22.9,-000.5,0008.94,0014.46,0008.42
2022-06-03 02:02:00,,0826.5,5.00,0.00,29.5,28.8,00.0,38.2,31.4,22.8,-000.9,0008.91,0014.02,0008.40
2022-06-03 02:03:00,,0826.5,5.00,0.00,29.5,28.8,00.0,38.2,31.4,22.8,-000.9,0008.85,0013.96,0008.33
2022-06-03 02:04:00,,0826.5,5.00,0.00,29.5,28.8,00.0,38.3,31.5,22.8,-001.1,0008.80,0014.34,0008.27
2022-06-03 02:05:00,,0826.5,5.00,0.00,29.5,28.9,00.0,38.3,31.5,23.1,-001.3,0008.73,0014.17,0008.19
2022-06-03 02:06:00,,0826.5,4.99,0.00,29.6,28.9,00.0,38.3,31.5,23.4,-001.3,0008.66,0014.23,0008.10
2022-06-03 02:07:00,,0826.5,5.01,0.00,29.6,28.9,00.0,38.3,31.5,23.8,-001.4,0008.61,0014.37,0008.01
2022-06-03 02:08:00,,0826.5,5.00,0.00,29.6,28.9,00.0,38.4,31.6,24.4,-001.7,0008.54,0014.32,0007.90
2022-06-03 02:09:00,,0826.5,5.00,0.00,29.7,28.9,00.0,38.4,31.6,23.0,-002.2,0008.47,0013.86,0007.80
2022-06-03 02:10:00,,0826.5,5.01,0.00,29.7,29.0,00.0,38.4,31.6,23.0,-002.3,0008.39,0013.60,0007.72
2022-06-03 02:11:00,,0826.5,5.00,0.00,29.7,29.0,00.0,38.4,31.6,22.8,-002.5,0008.32,0013.10,0007.63
2022-06-03 02:12:00,,0826.5,5.00,0.00,29.7,29.0,00.0,38.5,31.7,22.6,-002.4,0008.23,0013.17,0007.54
2022-06-03 02:13:00,,0826.5,5.01,0.00,29.7,29.0,00.0,38.5,31.7,22.7,-001.9,0008.18,0013.14,0007.49
2022-06-03 02:14:00,,0826.5,5.00,0.00,29.8,29.0,00.0,38.5,31.7,22.6,-001.6,0008.20,0013.36,0007.47
2022-06-03 02:15:00,,0826.5,4.99,0.00,29.8,29.0,00.0,38.5,31.7,22.5,-001.5,0008.22,0013.52,0007.47
2022-06-03 02:16:00,,0826.5,4.99,0.00,29.8,29.0,00.0,38.6,31.6,22.4,-001.2,0008.24,0013.45,0007.47
2022-06-03 02:17:00,,0826.5,5.01,0.00,29.8,29.0,00.0,38.6,31.7,22.4,-001.1,0008.28,0013.28,0007.48
2022-06-03 02:18:00,,0826.6,5.01,0.00,29.8,29.0,00.0,38.6,31.7,22.6,-001.0,0008.28,0013.11,0007.53
2022-06-03 02:19:00,,0826.6,5.00,0.00,29.8,29.0,00.0,38.6,31.7,22.8,-001.0,0008.31,0013.31,0007.57
2022-06-03 02:20:00,,0826.6,5.01,0.00,29.8,29.0,00.0,38.6,31.7,22.6,-000.5,0008.31,0013.37,0007.57
2022-06-03 02:21:00,,0826.6,4.99,0.00,29.8,29.0,00.0,38.6,31.8,22.7,-000.2,0008.30,0013.64,0007.55
2022-06-03 02:22:00,,0826.6,5.01,0.00,29.9,29.1,00.0,38.7,31.8,23.5,0000.4,0008.27,0013.83,0007.53
2022-06-03 02:23:00,,0826.6,5.00,0.00,29.9,29.1,00.0,38.7,31.7,23.5,0000.3,0008.30,0013.92,0007.50
2022-06-03 02:24:00,,0826.6,4.99,0.00,29.9,29.1,00.0,38.7,31.8,23.5,0000.1,0008.27,0014.36,0007.46
2022-06-03 02:25:00,,0826.6,5.00,0.00,29.9,29.1,00.0,38.7,31.8,23.2,-000.3,0008.20,0014.57,0007.41
2022-06-03 02:26:00,,0826.6,5.00,0.00,29.9,29.1,00.0,38.7,31.8,22.8,-000.7,0008.19,0014.51,0007.38
2022-06-03 02:27:00,,0826.6,5.00,0.00,30.0,29.1,00.0,38.8,31.9,22.7,-000.7,0008.15,0014.75,0007.35
2022-06-03 02:28:00,,0826.6,5.00,0.00,30.0,29.2,00.0,38.8,31.9,22.8,-000.4,0008.06,0014.70,0007.31
2022-06-03 02:29:00,,0826.6,5.01,0.00,30.0,29.2,00.0,38.8,31.9,22.8,-000.3,0008.00,0015.52,0007.24
2022-06-03 02:30:00,,0826.6,5.00,0.00,30.0,29.2,00.0,38.8,31.9,22.9,-000.7,0007.92,0015.96,0007.20
2022-06-03 02:31:00,,0826.6,4.99,0.00,30.0,29.2,00.0,38.8,31.9,23.3,-000.3,0007.88,0016.72,0007.16
2022-06-03 02:32:00,,0826.6,5.00,0.00,30.0,29.2,00.0,38.8,31.9,23.2,-000.3,0007.88,0016.97,0007.18
2022-06-03 02:33:00,,0826.6,5.02,0.00,30.0,28.6,00.0,38.8,31.8,23.2,-000.1,0007.87,0016.70,0007.18
2022-06-03 02:34:00,,0826.6,4.99,0.00,29.9,27.8,00.0,38.7,31.5,23.3,-000.0,0007.83,0016.57,0007.19
2022-06-03 02:35:00,,0826.6,5.01,0.00,29.9,27.5,00.0,38.7,31.4,23.5,0000.1,0007.82,0016.26,0007.21
2022-06-03 02:36:00,,0826.6,5.00,0.00,29.7,27.5,00.0,38.7,31.3,23.7,0000.2,0007.85,0016.10,0007.24
2022-06-03 02:37:00,,0826.6,5.01,0.00,29.7,27.6,00.0,38.7,31.3,23.8,0000.5,0007.80,0015.76,0007.23
2022-06-03 02:38:00,,0826.6,5.00,0.00,29.6,27.7,00.0,38.6,31.3,23.6,0000.7,0007.75,0015.51,0007.22
2022-06-03 02:39:00,,0826.6,5.00,0.00,29.6,27.8,00.0,38.6,31.4,23.6,0000.8,0007.74,0015.74,0007.22
2022-06-03 02:40:00,,0826.6,5.00,0.00,29.6,28.0,00.0,38.6,31.4,23.4,0000.5,0007.77,0015.80,0007.23
2022-06-03 02:41:00,,0826.6,5.00,0.00,29.6,28.1,00.0,38.6,31.4,23.5,0001.1,0007.80,0015.01,0007.23
2022-06-03 02:42:00,,0826.6,5.00,0.00,29.6,28.2,00.0,38.6,31.4,23.6,0001.2,0007.82,0014.33,0007.23
2022-06-03 02:43:00,,0826.6,5.00,0.00,29.6,28.3,00.0,38.6,31.5,23.6,0001.2,0007.79,0013.81,0007.19
2022-06-03 02:44:00,,0826.6,5.01,0.00,29.6,28.4,00.0,38.6,31.5,23.6,0001.1,0007.74,0014.16,0007.15
2022-06-03 02:45:00,,0826.6,5.00,0.00,29.7,28.5,00.0,38.6,31.5,23.5,0000.7,0007.72,0014.35,0007.11
2022-06-03 02:46:00,,0826.6,5.00,0.00,29.7,28.5,00.0,38.6,31.5,23.5,0000.8,0007.70,0014.17,0007.07
2022-06-03 02:47:00,,0826.7,5.00,0.00,29.7,28.6,00.0,38.6,31.5,23.4,0000.0,0007.65,0013.87,0007.03
2022-06-03 02:48:00,,0826.7,5.00,0.00,29.7,28.6,00.0,38.6,31.6,23.3,0000.0,0007.60,0013.68,0007.01
2022-06-03 02:49:00,,0826.7,4.99,0.00,29.7,28.7,00.0,38.6,31.6,23.0,0000.0,0007.62,0013.61,0007.00
2022-06-03 02:50:00,,0826.6,5.00,0.00,29.7,28.7,00.0,38.6,31.6,23.0,0000.0,0007.62,0013.26,0006.97
2022-06-03 02:51:00,,0826.7,5.01,0.00,29.7,28.8,00.0,38.6,31.6,23.0,0000.0,0007.60,0013.51,0006.96
2022-06-03 02:52:00,,0826.7,5.00,0.00,29.8,28.8,00.0,38.6,31.6,22.8,0000.0,0007.61,0013.33,0006.96
2022-06-03 02:53:00,,0826.7,5.00,0.00,29.8,28.8,00.0,38.6,31.6,22.6,0000.0,0007.58,0013.46,0006.96
2022-06-03 02:54:00,,0826.7,5.00,0.00,29.8,28.9,00.0,38.6,31.6,22.5,0000.0,0007.55,0013.35,0006.96
2022-06-03 02:55:00,,0826.7,5.00,0.00,29.8,28.9,00.0,38.7,31.7,22.4,0000.0,0007.54,0013.13,0006.97
2022-06-03 02:56:00,,0826.7,5.00,0.00,29.8,28.9,00.0,38.7,31.7,22.7,0000.0,0007.56,0013.07,0006.98
2022-06-03 02:57:00,,0826.7,5.01,0.00,29.8,28.9,00.0,38.7,31.7,22.8,0000.0,0007.57,0013.00,0007.00
2022-06-03 02:58:00,,0826.7,5.00,0.00,29.8,28.9,00.0,38.7,31.7,22.9,0000.0,0007.57,0013.16,0007.01
2022-06-03 02:59:00,,0826.7,4.99,0.00,29.8,28.9,00.0,38.7,31.7,23.3,0000.0,0007.61,0013.85,0007.01
